Radiation Dose at Monitoring Post of Fukushima Daini Nuclear Power Station
Date,Time,MP-1(microSv/h),MP-2(microSv/h),MP-3(microSv/h),MP-4(microSv/h),MP-5(microSv/h),MP-6(microSv/h),MP-7(microSv/h),Wind Direction,Wind Velocity(m/s),Rain
2015/06/05,00:00,0.532,0.308,0.569,0.560,0.484,0.255,0.231,west,9.2,No
2015/06/05,00:10,0.534,0.313,0.566,0.556,0.479,0.256,0.231,west,8.4,No
2015/06/05,00:20,0.532,0.311,0.570,0.560,0.485,0.255,0.229,west,8.1,No
2015/06/05,00:30,0.534,0.312,0.564,0.556,0.479,0.257,0.231,west,8.3,No
2015/06/05,00:40,0.533,0.311,0.570,0.560,0.485,0.256,0.229,west,8.9,No
2015/06/05,00:50,0.534,0.312,0.564,0.557,0.482,0.256,0.229,west-northwest,8.4,No
2015/06/05,01:00,0.532,0.310,0.571,0.560,0.484,0.256,0.230,west,10.6,No
2015/06/05,01:10,0.534,0.310,0.564,0.555,0.480,0.256,0.230,west-northwest,8.2,No
2015/06/05,01:20,0.533,0.311,0.571,0.560,0.482,0.256,0.230,west,7.9,No
2015/06/05,01:30,0.534,0.310,0.564,0.560,0.483,0.257,0.229,west-northwest,6.8,No
2015/06/05,01:40,0.535,0.312,0.570,0.561,0.479,0.256,0.230,west-northwest,8.8,No
2015/06/05,01:50,0.532,0.310,0.564,0.557,0.484,0.256,0.231,west-northwest,7.7,No
2015/06/05,02:00,0.532,0.312,0.569,0.558,0.479,0.255,0.228,west-northwest,6.6,No
2015/06/05,02:10,0.534,0.310,0.564,0.559,0.485,0.256,0.230,west,6.8,No
2015/06/05,02:20,0.532,0.312,0.569,0.562,0.477,0.258,0.230,west-northwest,7.2,No
2015/06/05,02:30,0.533,0.310,0.565,0.559,0.484,0.255,0.229,west-northwest,5.1,No
2015/06/05,02:40,0.533,0.311,0.569,0.561,0.478,0.258,0.229,west-northwest,6.4,No
2015/06/05,02:50,0.534,0.310,0.565,0.556,0.485,0.257,0.229,west-northwest,8.4,No
2015/06/05,03:00,0.535,0.310,0.569,0.558,0.479,0.257,0.231,west,8.8,No
2015/06/05,03:10,0.532,0.310,0.565,0.558,0.483,0.256,0.230,west-northwest,9.2,No
2015/06/05,03:20,0.534,0.311,0.570,0.557,0.479,0.257,0.230,west-northwest,9.7,No
2015/06/05,03:30,0.534,0.311,0.564,0.559,0.484,0.256,0.230,west-northwest,8.9,No
2015/06/05,03:40,0.533,0.311,0.569,0.558,0.480,0.256,0.229,west-northwest,5.6,No
2015/06/05,03:50,0.533,0.312,0.566,0.559,0.484,0.256,0.229,west-northwest,3.6,No
2015/06/05,04:00,0.534,0.310,0.571,0.555,0.482,0.257,0.230,north-northwest,3.9,No
2015/06/05,04:10,0.532,0.312,0.565,0.559,0.480,0.256,0.229,north,3.5,No
2015/06/05,04:20,0.534,0.311,0.572,0.556,0.480,0.256,0.230,west-northwest,1.8,No
2015/06/05,04:30,0.533,0.312,0.567,0.560,0.482,0.256,0.230,west-northwest,3.0,No
2015/06/05,04:40,0.534,0.309,0.570,0.554,0.479,0.256,0.229,west,2.4,No
2015/06/05,04:50,0.532,0.312,0.567,0.560,0.481,0.257,0.230,west-southwest,2.8,No
2015/06/05,05:00,0.534,0.310,0.567,0.557,0.483,0.256,0.230,west-northwest,3.3,No
2015/06/05,05:10,0.531,0.313,0.567,0.558,0.482,0.257,0.230,west-northwest,3.4,No
2015/06/05,05:20,0.536,0.309,0.566,0.555,0.480,0.256,0.230,west,6.1,No
2015/06/05,05:30,0.532,0.312,0.568,0.561,0.479,0.257,0.229,west-southwest,3.9,No
2015/06/05,05:40,0.537,0.309,0.567,0.555,0.475,0.256,0.229,west,4.2,No
2015/06/05,05:50,0.529,0.310,0.569,0.559,0.482,0.256,0.228,west,3.7,No
2015/06/05,06:00,0.536,0.311,0.566,0.555,0.477,0.256,0.228,west,5.6,No
2015/06/05,06:10,0.530,0.308,0.569,0.562,0.478,0.258,0.229,west,5.6,No
2015/06/05,06:20,0.534,0.308,0.565,0.556,0.483,0.255,0.228,west,4.2,No
2015/06/05,06:30,0.532,0.311,0.567,0.560,0.477,0.256,0.227,northwest,2.8,No
2015/06/05,06:40,0.530,0.309,0.562,0.554,0.483,0.255,0.229,west-northwest,2.2,No
2015/06/05,06:50,0.535,0.307,0.569,0.557,0.481,0.255,0.229,northwest,1.2,No
2015/06/05,07:00,0.528,0.309,0.564,0.559,0.477,0.255,0.228,northwest,1.9,No
2015/06/05,07:10,0.537,0.310,0.560,0.552,0.483,0.256,0.227,west-northwest,1.3,No
2015/06/05,07:20,0.531,0.309,0.565,0.556,0.478,0.256,0.226,west,2.6,No
2015/06/05,07:30,0.530,0.306,0.565,0.559,0.481,0.254,0.229,west,1.4,No
2015/06/05,07:40,0.536,0.309,0.561,0.553,0.482,0.257,0.230,west,1.0,No
2015/06/05,07:50,0.530,0.312,0.557,0.552,0.477,0.256,0.228,south,1.2,No
2015/06/05,08:00,0.527,0.311,0.564,0.561,0.478,0.254,0.228,east-southeast,1.9,No
2015/06/05,08:10,0.535,0.309,0.569,0.557,0.483,0.257,0.227,east-southeast,3.2,No
2015/06/05,08:20,0.533,0.308,0.563,0.552,0.479,0.255,0.230,southeast,2.9,No
2015/06/05,08:30,0.528,0.311,0.560,0.549,0.476,0.255,0.229,southeast,4.5,No
2015/06/05,08:40,0.534,0.313,0.570,0.559,0.483,0.256,0.227,south-southeast,5.5,No
2015/06/05,08:50,0.536,0.311,0.567,0.557,0.481,0.255,0.231,south,5.9,No
2015/06/05,09:00,0.529,0.310,0.561,0.554,0.477,0.256,0.230,south,6.3,No
2015/06/05,09:10,0.530,0.313,0.568,0.560,0.481,0.257,0.227,south-southwest,5.8,No
2015/06/05,09:20,0.535,0.312,0.570,0.559,0.483,0.255,0.230,south-southwest,5.9,No
2015/06/05,09:30,0.531,0.308,0.564,0.554,0.479,0.255,0.230,south-southwest,4.4,No
2015/06/05,09:40,0.527,0.307,0.567,-,0.477,0.257,0.230,south-southwest,3.4,No
2015/06/05,09:50,0.524,0.307,0.570,-,0.476,0.256,0.228,southwest,3.6,No
2015/06/05,10:00,0.529,0.308,0.566,-,0.476,0.256,0.229,south-southwest,3.1,No
2015/06/05,10:10,0.534,0.308,0.561,-,0.477,0.255,0.229,south,3.1,No
2015/06/05,10:20,0.534,0.307,0.560,-,0.476,0.253,0.228,south-southeast,4.0,No
2015/06/05,10:30,0.531,0.309,0.559,-,0.476,0.256,0.230,south,4.7,No
2015/06/05,10:40,0.527,0.313,0.569,-,0.484,0.256,0.230,south,6.0,No
2015/06/05,10:50,0.531,0.314,0.568,-,0.483,0.256,0.230,south,6.7,No
2015/06/05,11:00,0.536,0.310,0.563,-,0.480,0.255,0.229,south,7.0,No
2015/06/05,11:10,0.532,0.310,0.563,-,0.478,0.256,0.231,south,8.0,No
2015/06/05,11:20,0.529,0.314,0.569,-,0.479,0.256,0.231,south,9.5,No
2015/06/05,11:30,0.536,0.310,0.569,-,0.484,0.255,0.228,south,7.4,No
2015/06/05,11:40,0.536,0.309,0.562,-,0.483,0.256,0.231,south,7.5,No
2015/06/05,11:50,0.531,0.311,0.566,-,0.477,0.256,0.230,south,7.6,No
2015/06/05,12:00,0.533,0.314,0.570,-,0.479,0.255,0.228,south,7.0,No
2015/06/05,12:10,0.537,0.310,0.565,-,0.482,0.257,0.231,south-southwest,6.2,No
2015/06/05,12:20,0.532,0.309,0.562,-,0.482,0.256,0.231,south,7.2,No
2015/06/05,12:30,0.533,0.313,0.571,-,0.478,0.255,0.229,south-southwest,7.5,No
2015/06/05,12:40,0.538,0.310,0.569,-,0.483,0.256,0.229,south-southwest,8.6,No
2015/06/05,12:50,0.533,0.308,0.563,-,0.485,0.257,0.231,south-southwest,7.9,No
2015/06/05,13:00,0.530,0.312,0.571,-,0.479,0.255,0.229,south-southwest,8.1,No
2015/06/05,13:10,0.538,0.312,0.570,-,0.481,0.256,0.230,south-southwest,8.5,No
2015/06/05,13:20,0.535,0.309,0.562,-,0.487,0.256,0.231,south-southwest,7.4,No
2015/06/05,13:30,0.533,0.311,0.570,-,0.478,0.255,0.229,south-southwest,5.9,No
2015/06/05,13:40,0.538,0.312,0.568,-,0.483,0.257,0.232,south-southwest,7.2,No
2015/06/05,13:50,0.530,0.310,0.564,-,0.484,0.255,0.230,south-southwest,6.7,No
2015/06/05,14:00,0.534,0.311,0.572,-,0.477,0.254,0.231,south-southwest,7.8,No
2015/06/05,14:10,0.535,0.311,0.568,-,0.485,0.257,0.230,south-southwest,6.2,No
2015/06/05,14:20,0.530,0.312,0.565,-,0.485,0.255,0.230,south-southwest,6.2,No
2015/06/05,14:30,0.537,0.312,0.572,-,0.477,0.256,0.231,south-southwest,5.0,No
2015/06/05,14:40,0.532,0.310,0.566,-,0.485,0.256,0.230,south-southwest,4.6,No
2015/06/05,14:50,0.534,0.313,0.569,-,0.482,0.256,0.231,southwest,4.4,No
2015/06/05,15:00,0.536,0.310,0.570,0.505,0.480,0.256,0.229,south-southwest,5.8,No
2015/06/05,15:10,0.530,0.312,0.563,0.512,0.482,0.256,0.230,south-southwest,4.8,No
2015/06/05,15:20,0.535,0.312,0.569,0.508,0.475,0.257,0.231,south-southwest,5.8,No
2015/06/05,15:30,0.534,0.309,0.567,0.509,0.481,0.258,0.229,south-southwest,5.6,No
2015/06/05,15:40,0.529,0.313,0.563,0.511,0.483,0.256,0.231,south-southwest,3.2,No
2015/06/05,15:50,0.537,0.312,0.572,0.505,0.479,0.258,0.230,south,4.4,No
2015/06/05,16:00,0.532,0.309,0.569,0.508,0.481,0.255,0.230,south-southwest,3.7,No
2015/06/05,16:10,0.532,0.313,0.563,0.511,0.483,0.256,0.232,south-southwest,3.5,No
2015/06/05,16:20,0.537,0.310,0.572,0.505,0.480,0.257,0.230,south-southwest,2.8,No
2015/06/05,16:30,0.530,0.310,0.568,0.510,0.481,0.256,0.230,south,5.2,No
2015/06/05,16:40,0.535,0.313,0.564,0.510,0.483,0.256,0.230,south-southwest,7.0,No
2015/06/05,16:50,0.536,0.309,0.571,0.504,0.476,0.255,0.230,south-southwest,5.8,No
2015/06/05,17:00,0.531,0.312,0.566,0.512,0.483,0.256,0.231,south-southwest,6.0,No
2015/06/05,17:10,0.537,0.311,0.565,0.507,0.482,0.256,0.229,south-southwest,6.4,No
2015/06/05,17:20,0.533,0.311,0.568,0.508,0.480,0.254,0.231,south-southwest,7.3,No
2015/06/05,17:30,0.533,0.314,0.564,0.511,0.486,0.257,0.231,southwest,6.4,No
2015/06/05,17:40,0.536,0.311,0.571,0.505,0.481,0.257,0.230,south-southwest,4.8,No
2015/06/05,17:50,0.531,0.312,0.568,0.511,0.482,0.257,0.231,south-southwest,3.7,No
2015/06/05,18:00,0.537,0.311,0.564,0.510,0.484,0.256,0.230,south-southwest,2.5,No
2015/06/05,18:10,0.534,0.310,0.573,0.506,0.477,0.255,0.233,south,3.0,No
2015/06/05,18:20,0.534,0.313,0.564,0.513,0.484,0.258,0.229,south-southwest,4.8,No
2015/06/05,18:30,0.537,0.309,0.570,0.506,0.481,0.256,0.230,south-southwest,5.7,No
2015/06/05,18:40,0.530,0.312,0.571,0.512,0.485,0.259,0.230,south-southwest,5.5,No
2015/06/05,18:50,0.538,0.310,0.566,0.509,0.484,0.257,0.229,south-southwest,6.3,No
2015/06/05,19:00,0.531,0.312,0.570,0.508,0.479,0.257,0.230,south-southwest,9.0,No
2015/06/05,19:10,0.534,0.310,0.565,0.511,0.485,0.256,0.229,south-southwest,8.1,No
2015/06/05,19:20,0.535,0.311,0.571,0.506,0.479,0.256,0.230,southwest,6.2,No
2015/06/05,19:30,0.531,0.313,0.567,0.511,0.484,0.259,0.230,south-southwest,5.6,No
2015/06/05,19:40,0.536,0.310,0.566,0.507,0.478,0.258,0.230,south-southwest,6.0,No
2015/06/05,19:50,0.530,0.313,0.571,0.510,0.483,0.256,0.230,south-southwest,5.8,Yes
2015/06/05,20:00,0.535,0.310,0.564,0.510,0.482,0.256,0.232,south-southwest,6.2,No
2015/06/05,20:10,0.535,0.313,0.571,0.508,0.480,0.256,0.229,south-southwest,6.5,Yes
2015/06/05,20:20,0.534,0.311,0.566,0.511,0.484,0.257,0.232,south-southwest,6.3,Yes
2015/06/05,20:30,0.536,0.312,0.569,0.508,0.480,0.257,0.230,south-southwest,5.9,Yes
2015/06/05,20:40,0.531,0.312,0.570,0.512,0.485,0.259,0.232,south,5.8,Yes
2015/06/05,20:50,0.539,0.312,0.567,0.508,0.481,0.257,0.231,south-southwest,5.9,Yes
2015/06/05,21:00,0.533,0.313,0.572,0.512,0.485,0.260,0.233,south-southwest,5.3,Yes
2015/06/05,21:10,0.538,0.312,0.569,0.510,0.482,0.258,0.232,south-southwest,5.0,Yes
2015/06/05,21:20,0.535,0.311,0.572,0.515,0.484,0.261,0.234,south-southwest,5.2,Yes
2015/06/05,21:30,0.537,0.314,0.569,0.508,0.482,0.259,0.233,south-southwest,5.7,Yes
2015/06/05,21:40,0.536,0.313,0.572,0.513,0.485,0.260,0.233,south-southwest,6.0,Yes
2015/06/05,21:50,0.537,0.313,0.567,0.510,0.485,0.258,0.232,south-southwest,7.4,Yes
2015/06/05,22:00,0.533,0.313,0.572,0.511,0.484,0.260,0.233,south-southwest,7.3,Yes
2015/06/05,22:10,0.537,0.313,0.568,0.511,0.485,0.258,0.232,south-southwest,8.2,Yes
2015/06/05,22:20,0.536,0.313,0.575,0.510,0.482,0.258,0.232,south-southwest,8.8,Yes
2015/06/05,22:30,0.536,0.313,0.569,0.511,0.484,0.258,0.232,south-southwest,9.2,Yes
2015/06/05,22:40,0.536,0.313,0.572,0.513,0.482,0.258,0.232,south-southwest,8.9,Yes
2015/06/05,22:50,0.535,0.313,0.570,0.511,0.485,0.259,0.234,south-southwest,9.5,Yes
2015/06/05,23:00,0.538,0.314,0.570,0.511,0.484,0.261,0.234,south-southwest,8.5,Yes
2015/06/05,23:10,0.536,0.313,0.568,0.511,0.484,0.261,0.234,south-southwest,9.1,Yes
2015/06/05,23:20,0.539,0.315,0.571,0.514,0.483,0.260,0.235,south-southwest,8.1,Yes
2015/06/05,23:30,0.537,0.317,0.570,0.511,0.483,0.260,0.234,south-southwest,7.8,Yes
2015/06/05,23:40,0.538,0.314,0.571,0.513,0.483,0.261,0.234,south-southwest,7.5,Yes
2015/06/05,23:50,0.536,0.316,0.568,0.510,0.483,0.260,0.233,south-southwest,6.1,Yes
